Location: Altavilla Irpina
(41.0000°N, 14.7833°E)
Time: 09:43:58
(UTC+00:00)

Nadezhda 3 Rocket - Pass Details

Date: 19 May 2025
Orbit: 957 x 997 km, 82.9° (Epoch: 23 June)

Event Time Altitude Azimuth Distance (km) Brightness Sun altitude
Exits shadow 21:21:59 59° 159° (SSE) 1,102 3.9 -25.1°
Maximum altitude 21:23:08 76° 95° (E) 997 3.9 -25.2°
Drops below altitude 10° 21:29:22 10° 11° (N) 2,726 7.1 -25.7°
Sets 21:31:54 0° 10° (N) 3,684 7.9 -25.9°
